Annapolis Naval Academy, MD

10:11 PM EST on December 16, 2017 (GMT -0500)
Annapolis Naval Academy

Weather History for KNAK - April, 2014

Change the Weather History Date:

Saturday, April 26, 2014

  Actual Average (KBWI) Record (KBWI)
Temperature  
Mean Temperature 64 °F -  
Max Temperature 75 °F 67 °F 92 °F (1990)
Min Temperature 52 °F 44 °F 32 °F (2001)
Degree Days  
Heating Degree Days 2    
Growing Degree Days 14 (Base 50)    
Moisture  
Dew Point 43 °F    
Average Humidity 53    
Maximum Humidity 93    
Minimum Humidity 25    
Precipitation  
Precipitation 0.00 in - - ()
Sea Level Pressure  
Sea Level Pressure 29.80 in    
Wind  
Wind Speed 10 mph (WNW)    
Max Wind Speed 18 mph    
Max Gust Speed 28 mph    
Visibility 9 miles    
Events      
Averages and records for this station are not official NWS values.
T = Trace of Precipitation, MM = Missing Value Source: NWS Daily Summary

Daily Weather History Graph

Daily Weather History Graph

Search for Another Location

Airport or City:

Trip Planner

Search our weather history database for the weather conditions in past years. The results will help you decide how hot, cold, wet, or windy it might be!

Date:

Astronomy

Apr. 26, 2014 Rise Set
Actual Time 6:14 AM EDT 7:53 PM EDT
Civil Twilight 5:45 AM EDT 8:22 PM EDT
Nautical Twilight 5:11 AM EDT 8:56 PM EDT
Astronomical Twilight 4:35 AM EDT 9:33 PM EDT
Moon 4:35 AM EDT (4/26) 5:21 PM EDT (4/26)
Length of Visible Light 14h 36m
Length of Day
13h 39m
Waning Crescent, 8% of the Moon is Illuminated
Apr 26
Waning Crescent
Apr 29
New
May 6
First Quarter
May 14
Full
May 21
Last Quarter

Hourly Weather History & Observations

Time (EDT) Temp. Dew Point Humidity Pressure Visibility Wind Dir Wind Speed Gust Speed Precip Events Conditions
12:54 AM 52.0 °F 50.0 °F 93% 29.73 in 4.0 mi NNW 9.2 mph - N/A   Overcast
1:54 AM 52.0 °F 50.0 °F 93% 29.74 in 4.0 mi NW 6.9 mph - N/A   Overcast
2:29 AM 52.0 °F 50.0 °F 93% 29.73 in 4.0 mi WNW 5.8 mph - N/A   Mostly Cloudy
2:54 AM 53.1 °F 50.0 °F 89% 29.74 in 6.0 mi WNW 6.9 mph - N/A   Partly Cloudy
3:54 AM 54.0 °F 44.1 °F 69% 29.76 in 10.0 mi WNW 13.8 mph 24.2 mph N/A   Clear
4:54 AM 53.1 °F 39.9 °F 61% 29.78 in 10.0 mi WNW 9.2 mph - N/A   Clear
5:54 AM 52.0 °F 39.9 °F 63% 29.80 in 10.0 mi NW 9.2 mph - N/A   Clear
6:54 AM 53.1 °F 39.9 °F 61% 29.83 in 10.0 mi WNW 10.4 mph - N/A   Clear
7:54 AM 54.0 °F 41.0 °F 62% 29.85 in 10.0 mi NNW 10.4 mph - N/A   Clear
8:54 AM 55.9 °F 39.9 °F 55% 29.88 in 10.0 mi NW 9.2 mph - N/A   Clear
9:54 AM 60.1 °F 41.0 °F 49% 29.89 in 10.0 mi WNW 4.6 mph - N/A   Clear
10:54 AM 62.1 °F 39.0 °F 43% 29.88 in 10.0 mi NW 5.8 mph - N/A   Clear
11:54 AM 59.0 °F 46.0 °F 62% 29.86 in 10.0 mi SE 11.5 mph - N/A   Scattered Clouds
12:54 PM 60.1 °F 46.0 °F 60% 29.83 in 10.0 mi SE 16.1 mph - N/A   Mostly Cloudy
1:54 PM 69.1 °F 41.0 °F 36% 29.81 in 10.0 mi WSW 15.0 mph 23.0 mph N/A   Partly Cloudy
2:54 PM 71.1 °F 43.0 °F 36% 29.77 in 10.0 mi SW 11.5 mph - N/A   Scattered Clouds
3:54 PM 75.0 °F 44.1 °F 33% 29.74 in 10.0 mi WSW 13.8 mph 23.0 mph N/A   Clear
4:54 PM 75.0 °F 42.1 °F 31% 29.73 in 10.0 mi West 16.1 mph 27.6 mph N/A   Scattered Clouds
5:54 PM 75.0 °F 39.9 °F 28% 29.74 in 10.0 mi West 11.5 mph 26.5 mph N/A   Clear
6:54 PM 75.0 °F 37.0 °F 25% 29.75 in 10.0 mi West 12.7 mph 25.3 mph N/A   Clear
7:54 PM 73.0 °F 39.9 °F 30% 29.78 in 10.0 mi NW 12.7 mph - N/A   Mostly Cloudy
8:54 PM 69.1 °F 42.1 °F 38% 29.81 in 10.0 mi WNW 9.2 mph 19.6 mph 0.00 in   Scattered Clouds
9:54 PM 69.1 °F 43.0 °F 39% 29.83 in 10.0 mi West 9.2 mph 23.0 mph N/A   Mostly Cloudy
10:54 PM 66.0 °F 42.1 °F 42% 29.86 in 10.0 mi NW 10.4 mph 21.9 mph N/A   Clear
11:54 PM 63.0 °F 35.1 °F 35% 29.89 in 10.0 mi NNW 18.4 mph - N/A   Clear